Showing default

OOV-CUBE, 60240

Orbit data source: Space-Track

OOV-CUBE, 60240 is a payload satellite owned by TUB (DE) in LEO that was launched on Tue, 09 Jul 2024 UTC via an ARIANE 62 launch vehicle from the French Guiana (FRGUI). Payload-class satellites include a variety of spacecraft equipped with specific instruments for various scientific and technological missions. These include communications satellites like Starlink; space stations such as the ISS; scientific satellites like the Hubble; Earth observation satellites from companies like Planet Labs, Umbra, and HawkEye 360; GPS; miniature CubeSats for education and research; and military/defense satellites.

Loading next visibility...
Identifier
60240, 2024-128F
Orbit
LEO
Country
Flag of DEDE / GER
Related business
Manufacturer
TUB
Mission
Operational Amateur Technology
Bus & Motor
TUBSAT, Unknown motor
Mass
17 kg wet, 17 kg dry
Launch date (UTC)
2024-07-09 (1 year ago)
Launch vehicle
ARIANE 62
Launch site
French Guiana (FRGUI)
Object type
Payload
Rocket body
Debris
Shape & HBR
Box, 0.1 m
Radar Cross Section
0.094 m², Small (<0.1 m²)

Expand to show TLE details & history
Last TLE update: 10 hours ago

TLE from 10 hours ago
0 OOV-CUBE
1 60240U 24128F   25299.52729183  .00003174  00000-0  25356-3 0  9992
2 60240  61.9960 319.4624 0058733  84.1269 276.6512 15.01179510 71018
Epoch: 2025-10-26T12:39Z
TLE epoch observation values (Epoch: 2025-10-26T12:39:18.014Z)
Latitude
-0.00001°
Longitude
94.49513°
Altitude
560.542 km
Speed
7.584 km/s
True Right ascension
21h 17m 50s
True Declination
0° 00' 00"
Sunlit
Object was in daylight at epoch
Visualization orbit readout
Latitude
Unknown
Longitude
Unknown
Altitude
Unknown
Speed
Unknown
Apparent Right ascension
Unknown
Apparent Declination
Unknown
Sunlit
N/A
Visualization observer readout
Local Sidereal Time
17:56:16
Azimuth
Unknown
Elevation
Unknown
Doppler factor
Unknown
Orbital elements
Apogee altitude
602.951 km
Perigee altitude
521.425 km
Semi-major axis
6,940.325 km
Eccentricity
0.00587
Inclination
61.996°
RAAN
319.4624°
Arg. of periapsis
84.1269°
True anomaly
275.98215°
Mean anomaly
276.6512°
Eccentric anomaly
276.31673°
Mean motion
3.75382 °/min
Orbital period
95.9 mins
BSTAR
0.00025356
Loading maneuver chart data...
Computing Atmospheric mass density...
Loading historical data...
Loading historical data...
Loading historical data...
Loading historical data...
Loading historical data...
Loading historical data...
Loading historical data...

Documentation

Showing up to 5 results
|